QPF
0.00 0.00 0.00 0.00 0.00 0.00 0.00 0.00 0.00 0.00 0.00 0.00 0.00 0.00 0.00 0.00 0.00 0.00 0.00 0.00 0.00 0.00 0.00 0.00 0.00 0.00 0.00 0.00 0.00 0.00 0.00 0.00 0.00 0.01 0.02 0.03 0.04 0.05
0.00 0.00 0.00 0.00 0.00 0.00 0.00 0.00 0.00 0.00 0.00 0.00 0.00 0.00 0.00 0.00 0.00 0.00 0.00 0.00 0.00 0.00 0.00 0.00 0.00 0.00 0.00 0.00 0.00 0.00 0.00 0.00 0.00 0.00 0.01 0.01 0.01 0.02
0.00 0.00 0.00 0.00 0.00 0.00 0.00 0.00 0.00 0.00 0.00 0.00 0.00 0.00 0.00 0.00 0.00 0.00 0.00 0.00 0.00 0.00 0.00 0.00 0.00 0.00 0.00 0.00 0.00 0.00 0.00 0.00 0.00 0.00 0.00 0.00 0.00 0.00
0.00 0.00 0.00 0.00 0.00 0.00 0.00 0.00 0.00 0.00 0.00 0.00 0.00 0.00 0.00 0.00 0.00 0.00 0.00 0.00 0.00 0.00 0.00 0.00 0.00 0.00 0.00 0.00 0.00 0.00 0.00 0.00 0.00 0.00 0.00 0.00 0.00 0.00
0.00 0.00 0.00 0.00 0.00 0.00 0.00 0.00 0.00 0.00 0.00 0.00 0.00 0.00 0.00 0.00 0.00 0.00 0.00 0.00 0.00 0.00 0.00 0.00 0.00 0.00 0.00 0.00 0.00 0.00 0.00 0.00 0.00 0.00 0.00 0.00 0.00 0.00
0.00 0.00 0.00 0.00 0.00 0.00 0.00 0.00 0.00 0.00 0.00 0.00 0.00 0.00 0.00 0.00 0.00 0.00 0.00 0.00 0.00 0.00 0.00 0.00 0.00 0.00 0.00 0.00 0.00 0.00 0.00 0.00 0.00 0.00 0.00 0.00 0.00 0.00
0.01 0.01 0.01 0.01 0.01 0.01 0.01 0.01 0.01 0.01 0.01 0.01 0.00 0.00 0.00 0.00 0.00 0.00 0.00 0.00 0.00 0.00 0.00 0.00 0.00 0.00 0.00 0.00 0.00 0.00 0.00 0.00 0.00 0.00 0.00 0.00 0.00 0.00
0.03 0.02 0.02 0.02 0.02 0.02 0.02 0.01 0.01 0.01 0.01 0.01 0.00 0.00 0.00 0.00 0.01 0.01 0.01 0.00 0.00 0.00 0.00 0.00 0.00 0.00 0.00 0.00 0.00 0.00 0.00 0.00 0.00 0.00 0.00 0.00 0.00 0.00
0.04 0.03 0.03 0.02 0.02 0.01 0.01 0.01 0.01 0.01 0.01 0.02 0.01 0.01 0.01 0.01 0.01 0.01 0.01 0.01 0.00 0.00 0.00 0.00 0.00 0.00 0.00 0.00 0.00 0.00 0.00 0.00 0.00 0.00 0.00 0.00 0.00 0.00
0.03 0.02 0.02 0.01 0.01 0.01 0.01 0.01 0.01 0.01 0.02 0.02 0.02 0.01 0.01 0.01 0.01 0.01 0.01 0.01 0.00 0.00 0.00 0.00 0.00 0.00 0.00 0.00 0.00 0.00 0.00 0.00 0.00 0.00 0.00 0.00 0.00 0.00
0.04 0.03 0.02 0.02 0.02 0.02 0.01 0.01 0.01 0.01 0.01 0.02 0.02 0.01 0.01 0.01 0.02 0.03 0.02 0.02 0.01 0.00 0.00 0.00 0.00 0.00 0.00 0.00 0.00 0.00 0.00 0.00 0.00 0.00 0.00 0.00 0.00 0.00
0.03 0.02 0.02 0.01 0.01 0.01 0.01 0.00 0.01 0.01 0.01 0.01 0.01 0.01 0.01 0.01 0.02 0.04 0.04 0.03 0.02 0.01 0.01 0.01 0.00 0.01 0.00 0.00 0.00 0.00 0.00 0.00 0.00 0.00 0.00 0.00 0.00 0.00
0.03 0.02 0.02 0.02 0.01 0.01 0.01 0.00 0.00 0.00 0.01 0.01 0.01 0.01 0.01 0.02 0.02 0.03 0.03 0.04 0.03 0.02 0.01 0.02 0.02 0.02 0.01 0.00 0.00 0.00 0.00 0.00 0.00 0.00 0.00 0.00 0.00 0.00
0.02 0.02 0.02 0.02 0.01 0.01 0.01 0.01 0.01 0.01 0.01 0.01 0.01 0.01 0.01 0.01 0.02 0.02 0.03 0.03 0.03 0.02 0.02 0.03 0.03 0.03 0.03 0.02 0.01 0.00 0.00 0.00 0.00 0.00 0.00 0.00 0.00 0.00
0.00 0.00 0.00 0.00 0.00 0.00 0.00 0.00 0.00 0.00 0.00 0.00 0.00 0.01 0.01 0.01 0.02 0.03 0.04 0.05 0.06 0.05 0.04 0.05 0.06 0.05 0.05 0.04 0.02 0.01 0.01 0.01 0.01 0.00 0.00 0.00 0.00 0.00
0.00 0.00 0.00 0.00 0.00 0.00 0.00 0.00 0.00 0.00 0.00 0.00 0.00 0.01 0.01 0.01 0.02 0.03 0.04 0.04 0.05 0.04 0.04 0.05 0.06 0.07 0.06 0.05 0.04 0.03 0.02 0.02 0.02 0.01 0.01 0.01 0.00 0.00
0.00 0.00 0.00 0.00 0.00 0.00 0.00 0.00 0.00 0.00 0.00 0.00 0.01 0.01 0.01 0.01 0.01 0.02 0.03 0.05 0.05 0.04 0.03 0.04 0.06 0.09 0.10 0.09 0.07 0.04 0.04 0.03 0.03 0.03 0.03 0.02 0.01 0.01
0.00 0.00 0.00 0.00 0.00 0.00 0.00 0.00 0.00 0.00 0.01 0.01 0.01 0.01 0.02 0.02 0.02 0.03 0.04 0.05 0.05 0.04 0.04 0.04 0.07 0.10 0.12 0.10 0.08 0.07 0.06 0.05 0.04 0.05 0.05 0.04 0.03 0.01
0.00 0.00 0.00 0.00 0.00 0.00 0.00 0.00 0.00 0.00 0.00 0.01 0.01 0.01 0.02 0.02 0.03 0.03 0.04 0.05 0.06 0.05 0.05 0.06 0.09 0.12 0.10 0.07 0.05 0.07 0.08 0.07 0.07 0.07 0.06 0.05 0.03 0.01
0.00 0.00 0.00 0.00 0.00 0.00 0.00 0.01 0.00 0.00 0.00 0.01 0.01 0.01 0.02 0.02 0.03 0.03 0.04 0.05 0.05 0.05 0.05 0.06 0.08 0.09 0.09 0.07 0.06 0.06 0.08 0.09 0.08 0.07 0.06 0.05 0.04 0.03
0.00 0.00 0.00 0.00 0.00 0.01 0.01 0.01 0.01 0.01 0.01 0.01 0.02 0.02 0.02 0.03 0.04 0.04 0.05 0.05 0.06 0.06 0.06 0.05 0.06 0.10 0.13 0.13 0.10 0.06 0.05 0.07 0.07 0.08 0.07 0.07 0.05 0.04
0.01 0.01 0.01 0.01 0.01 0.01 0.01 0.01 0.01 0.02 0.02 0.03 0.03 0.03 0.04 0.05 0.06 0.06 0.06 0.07 0.08 0.08 0.07 0.06 0.08 0.12 0.14 0.14 0.10 0.07 0.06 0.06 0.07 0.07 0.08 0.07 0.06 0.04
0.01 0.01 0.01 0.01 0.01 0.01 0.01 0.02 0.02 0.02 0.03 0.03 0.03 0.04 0.05 0.05 0.05 0.06 0.07 0.08 0.08 0.09 0.10 0.10 0.11 0.11 0.11 0.11 0.10 0.08 0.06 0.06 0.07 0.08 0.06 0.05 0.04 0.03
MSLP
1018.57 1018.89 1019.27 1019.66 1020.03 1020.31 1020.49 1020.56 1020.51 1020.36 1020.15 1019.90 1019.64 1019.38 1019.13 1018.90 1018.70 1018.51 1018.34 1018.20 1018.09 1018.02 1017.98 1017.98 1018.00 1018.03 1018.06 1018.08 1018.08 1018.06 1018.03 1018.00 1018.00 1018.01 1018.07 1018.16 1018.28 1018.42
1018.36 1018.65 1019.00 1019.36 1019.70 1019.99 1020.20 1020.30 1020.31 1020.23 1020.09 1019.89 1019.66 1019.42 1019.17 1018.92 1018.66 1018.42 1018.19 1017.99 1017.82 1017.70 1017.64 1017.62 1017.63 1017.67 1017.71 1017.74 1017.75 1017.74 1017.71 1017.68 1017.65 1017.65 1017.67 1017.73 1017.81 1017.92
1018.13 1018.38 1018.69 1019.01 1019.33 1019.61 1019.82 1019.95 1020.01 1019.99 1019.90 1019.77 1019.59 1019.38 1019.14 1018.88 1018.60 1018.32 1018.04 1017.78 1017.56 1017.40 1017.29 1017.25 1017.25 1017.28 1017.33 1017.37 1017.39 1017.39 1017.37 1017.34 1017.32 1017.31 1017.32 1017.36 1017.43 1017.52
1017.82 1018.04 1018.31 1018.59 1018.88 1019.13 1019.34 1019.49 1019.57 1019.60 1019.58 1019.51 1019.39 1019.23 1019.02 1018.78 1018.50 1018.19 1017.88 1017.58 1017.32 1017.11 1016.96 1016.87 1016.84 1016.86 1016.89 1016.93 1016.96 1016.96 1016.96 1016.94 1016.93 1016.93 1016.95 1016.99 1017.06 1017.14
1017.39 1017.59 1017.83 1018.08 1018.32 1018.55 1018.74 1018.89 1019.00 1019.07 1019.09 1019.08 1019.03 1018.93 1018.77 1018.57 1018.31 1018.01 1017.69 1017.37 1017.07 1016.82 1016.62 1016.49 1016.41 1016.38 1016.38 1016.39 1016.41 1016.41 1016.41 1016.41 1016.41 1016.42 1016.46 1016.53 1016.61 1016.71
1016.87 1017.05 1017.26 1017.47 1017.68 1017.88 1018.05 1018.19 1018.31 1018.40 1018.47 1018.51 1018.52 1018.48 1018.39 1018.24 1018.03 1017.76 1017.46 1017.13 1016.81 1016.52 1016.27 1016.08 1015.94 1015.85 1015.79 1015.76 1015.74 1015.72 1015.71 1015.70 1015.72 1015.75 1015.82 1015.91 1016.03 1016.17
1016.30 1016.47 1016.65 1016.84 1017.01 1017.17 1017.31 1017.44 1017.55 1017.65 1017.74 1017.82 1017.88 1017.91 1017.88 1017.79 1017.64 1017.42 1017.14 1016.83 1016.50 1016.18 1015.89 1015.64 1015.43 1015.26 1015.13 1015.03 1014.95 1014.89 1014.85 1014.84 1014.85 1014.90 1014.99 1015.12 1015.28 1015.46
1015.78 1015.94 1016.10 1016.26 1016.40 1016.52 1016.62 1016.72 1016.81 1016.90 1017.00 1017.10 1017.18 1017.25 1017.28 1017.24 1017.15 1016.98 1016.74 1016.45 1016.13 1015.79 1015.46 1015.15 1014.87 1014.63 1014.42 1014.25 1014.10 1013.98 1013.90 1013.86 1013.86 1013.92 1014.02 1014.18 1014.37 1014.59
1015.41 1015.56 1015.70 1015.82 1015.92 1016.00 1016.07 1016.12 1016.17 1016.23 1016.31 1016.39 1016.49 1016.57 1016.62 1016.63 1016.57 1016.44 1016.24 1015.98 1015.66 1015.32 1014.96 1014.61 1014.28 1013.97 1013.69 1013.44 1013.22 1013.05 1012.92 1012.84 1012.82 1012.87 1012.97 1013.14 1013.35 1013.60
1015.28 1015.41 1015.52 1015.60 1015.66 1015.69 1015.70 1015.70 1015.70 1015.71 1015.74 1015.79 1015.85 1015.91 1015.96 1015.97 1015.93 1015.82 1015.64 1015.40 1015.10 1014.76 1014.39 1014.01 1013.64 1013.28 1012.94 1012.64 1012.37 1012.14 1011.97 1011.85 1011.80 1011.83 1011.92 1012.08 1012.30 1012.56
1015.41 1015.49 1015.56 1015.61 1015.62 1015.60 1015.55 1015.48 1015.42 1015.36 1015.32 1015.30 1015.30 1015.32 1015.32 1015.30 1015.25 1015.13 1014.96 1014.73 1014.44 1014.10 1013.73 1013.34 1012.95 1012.57 1012.20 1011.86 1011.55 1011.29 1011.08 1010.94 1010.86 1010.86 1010.94 1011.08 1011.29 1011.53
1015.73 1015.77 1015.79 1015.78 1015.73 1015.66 1015.55 1015.41 1015.27 1015.14 1015.02 1014.92 1014.84 1014.77 1014.71 1014.64 1014.53 1014.39 1014.20 1013.96 1013.67 1013.33 1012.97 1012.59 1012.20 1011.81 1011.43 1011.08 1010.76 1010.48 1010.26 1010.09 1010.00 1009.98 1010.03 1010.15 1010.34 1010.56
1016.15 1016.13 1016.09 1016.02 1015.91 1015.77 1015.60 1015.41 1015.19 1014.98 1014.78 1014.59 1014.42 1014.26 1014.12 1013.96 1013.80 1013.60 1013.37 1013.10 1012.80 1012.46 1012.10 1011.73 1011.34 1010.96 1010.60 1010.25 1009.93 1009.66 1009.43 1009.26 1009.16 1009.13 1009.17 1009.28 1009.43 1009.63
1016.54 1016.45 1016.34 1016.21 1016.04 1015.84 1015.61 1015.35 1015.08 1014.80 1014.52 1014.26 1014.00 1013.76 1013.52 1013.29 1013.04 1012.78 1012.49 1012.19 1011.85 1011.50 1011.13 1010.75 1010.37 1010.00 1009.64 1009.31 1009.00 1008.74 1008.52 1008.37 1008.27 1008.24 1008.28 1008.39 1008.53 1008.71
1016.79 1016.63 1016.45 1016.24 1016.02 1015.76 1015.48 1015.18 1014.86 1014.53 1014.20 1013.87 1013.55 1013.24 1012.92 1012.61 1012.28 1011.95 1011.60 1011.24 1010.86 1010.47 1010.07 1009.67 1009.28 1008.90 1008.54 1008.21 1007.91 1007.66 1007.46 1007.32 1007.24 1007.24 1007.29 1007.40 1007.56 1007.75
1016.84 1016.60 1016.35 1016.08 1015.80 1015.50 1015.18 1014.85 1014.50 1014.15 1013.79 1013.43 1013.06 1012.70 1012.32 1011.94 1011.55 1011.14 1010.73 1010.30 1009.86 1009.41 1008.96 1008.52 1008.09 1007.68 1007.30 1006.95 1006.65 1006.40 1006.21 1006.08 1006.03 1006.05 1006.14 1006.28 1006.47 1006.68
1016.69 1016.39 1016.07 1015.75 1015.41 1015.08 1014.73 1014.39 1014.04 1013.68 1013.32 1012.95 1012.57 1012.18 1011.77 1011.34 1010.89 1010.42 1009.93 1009.42 1008.91 1008.39 1007.87 1007.36 1006.87 1006.41 1005.97 1005.59 1005.26 1004.99 1004.79 1004.68 1004.65 1004.70 1004.82 1005.00 1005.23 1005.48
1016.40 1016.05 1015.68 1015.31 1014.94 1014.58 1014.22 1013.88 1013.54 1013.20 1012.85 1012.49 1012.12 1011.72 1011.29 1010.83 1010.34 1009.81 1009.26 1008.68 1008.08 1007.48 1006.87 1006.28 1005.71 1005.16 1004.66 1004.21 1003.83 1003.53 1003.31 1003.19 1003.17 1003.24 1003.39 1003.62 1003.89 1004.19
1016.09 1015.69 1015.29 1014.88 1014.49 1014.12 1013.76 1013.43 1013.11 1012.79 1012.47 1012.14 1011.78 1011.38 1010.95 1010.47 1009.94 1009.36 1008.75 1008.10 1007.42 1006.73 1006.04 1005.36 1004.69 1004.06 1003.48 1002.96 1002.51 1002.16 1001.91 1001.76 1001.73 1001.80 1001.98 1002.23 1002.54 1002.88
1015.85 1015.42 1014.99 1014.57 1014.16 1013.79 1013.44 1013.12 1012.82 1012.53 1012.24 1011.92 1011.58 1011.19 1010.75 1010.25 1009.69 1009.07 1008.41 1007.70 1006.95 1006.19 1005.42 1004.65 1003.91 1003.20 1002.53 1001.94 1001.43 1001.02 1000.72 1000.53 1000.47 1000.53 1000.69 1000.95 1001.27 1001.63
1015.72 1015.28 1014.84 1014.41 1014.01 1013.64 1013.31 1013.00 1012.72 1012.45 1012.17 1011.86 1011.52 1011.13 1010.68 1010.16 1009.57 1008.92 1008.21 1007.45 1006.66 1005.84 1005.01 1004.19 1003.38 1002.61 1001.89 1001.24 1000.67 1000.20 999.84 999.61 999.50 999.52 999.65 999.88 1000.18 1000.53
1015.72 1015.28 1014.85 1014.42 1014.03 1013.67 1013.35 1013.05 1012.78 1012.51 1012.23 1011.92 1011.57 1011.16 1010.68 1010.13 1009.52 1008.84 1008.10 1007.31 1006.48 1005.64 1004.79 1003.93 1003.10 1002.30 1001.55 1000.86 1000.25 999.73 999.32 999.04 998.87 998.82 998.89 999.06 999.31 999.61
1015.81 1015.38 1014.95 1014.54 1014.16 1013.81 1013.50 1013.20 1012.93 1012.65 1012.35 1012.02 1011.64 1011.19 1010.68 1010.10 1009.46 1008.75 1007.99 1007.19 1006.36 1005.51 1004.66 1003.82 1002.99 1002.19 1001.44 1000.74 1000.10 999.56 999.11 998.76 998.53 998.41 998.40 998.49 998.66 998.89
Thickness
5705 5703 5701 5701 5700 5699 5697 5694 5688 5682 5683 5690 5695 5699 5698 5697 5697 5696 5695 5694 5693 5692 5691 5690 5689 5689 5688 5687 5687 5686 5686 5685 5685 5685 5685 5685 5686 5686
5702 5700 5698 5697 5696 5695 5694 5691 5689 5684 5680 5685 5689 5693 5694 5693 5692 5691 5691 5690 5690 5689 5688 5688 5687 5686 5685 5685 5684 5683 5683 5682 5682 5682 5682 5682 5682 5683
5698 5696 5694 5694 5692 5690 5689 5687 5685 5682 5678 5681 5684 5688 5688 5688 5687 5687 5686 5686 5686 5686 5685 5685 5684 5683 5683 5682 5681 5681 5680 5679 5679 5678 5678 5678 5678 5678
5695 5693 5691 5690 5687 5686 5684 5682 5680 5678 5676 5675 5678 5680 5682 5683 5682 5682 5682 5682 5682 5682 5682 5682 5681 5681 5680 5679 5678 5677 5677 5676 5676 5675 5674 5674 5674 5673
5692 5689 5687 5685 5682 5681 5679 5677 5676 5675 5673 5671 5672 5673 5674 5676 5675 5676 5677 5677 5677 5678 5678 5678 5678 5677 5677 5676 5675 5674 5673 5673 5672 5671 5671 5670 5670 5669
5689 5687 5685 5682 5680 5677 5675 5673 5671 5669 5667 5666 5666 5666 5667 5668 5666 5666 5667 5669 5671 5673 5673 5674 5673 5673 5673 5673 5672 5671 5670 5669 5668 5668 5667 5666 5666 5665
5685 5683 5682 5680 5678 5675 5673 5670 5667 5664 5662 5660 5660 5659 5660 5659 5658 5659 5659 5662 5664 5665 5666 5667 5667 5668 5668 5667 5667 5666 5666 5666 5665 5664 5664 5663 5662 5661
5679 5677 5676 5675 5674 5671 5669 5668 5665 5661 5658 5655 5654 5653 5655 5654 5653 5652 5651 5650 5653 5658 5656 5660 5661 5661 5662 5662 5662 5662 5662 5661 5661 5661 5660 5659 5659 5658
5672 5669 5669 5669 5666 5664 5663 5661 5659 5657 5655 5652 5649 5650 5650 5650 5646 5644 5643 5643 5647 5652 5647 5650 5652 5653 5656 5656 5656 5657 5656 5656 5656 5656 5656 5655 5655 5654
5661 5659 5658 5656 5655 5653 5652 5651 5650 5649 5647 5645 5644 5645 5645 5644 5641 5639 5638 5638 5641 5642 5640 5640 5645 5646 5649 5650 5650 5651 5651 5651 5651 5651 5651 5651 5650 5650
5649 5647 5645 5643 5641 5639 5638 5637 5637 5638 5638 5637 5636 5636 5635 5635 5632 5628 5627 5624 5629 5633 5632 5630 5636 5637 5640 5642 5644 5644 5645 5646 5646 5646 5645 5645 5645 5644
5635 5633 5631 5629 5627 5625 5623 5622 5622 5624 5625 5626 5625 5625 5624 5623 5621 5618 5616 5614 5617 5621 5624 5620 5624 5622 5625 5634 5636 5637 5637 5638 5639 5640 5640 5639 5638 5636
5620 5618 5617 5615 5613 5612 5610 5609 5609 5610 5610 5610 5610 5611 5610 5610 5609 5608 5606 5604 5605 5609 5612 5609 5610 5610 5610 5617 5623 5626 5627 5629 5630 5631 5632 5632 5632 5629
5606 5604 5603 5601 5600 5598 5597 5597 5596 5595 5594 5593 5593 5594 5594 5595 5596 5595 5594 5594 5594 5597 5599 5596 5597 5598 5597 5601 5606 5612 5615 5617 5619 5621 5623 5624 5624 5623
5591 5590 5589 5587 5585 5584 5584 5582 5581 5579 5577 5576 5576 5577 5578 5579 5579 5579 5579 5579 5581 5583 5584 5583 5583 5584 5584 5587 5592 5596 5599 5604 5606 5608 5611 5612 5614 5614
5575 5574 5573 5572 5570 5568 5566 5565 5563 5560 5559 5558 5559 5560 5560 5559 5560 5560 5560 5560 5562 5567 5569 5568 5568 5568 5570 5574 5577 5582 5586 5589 5594 5596 5599 5601 5604 5607
5558 5555 5553 5552 5550 5548 5547 5545 5543 5542 5540 5539 5539 5540 5540 5540 5541 5541 5540 5541 5541 5546 5551 5552 5553 5554 5556 5559 5563 5570 5574 5578 5582 5583 5584 5588 5594 5598
5540 5536 5534 5532 5530 5529 5528 5526 5525 5523 5522 5521 5521 5520 5521 5522 5523 5523 5522 5522 5524 5528 5531 5534 5535 5537 5540 5548 5553 5557 5562 5567 5570 5572 5573 5576 5584 5589
5521 5518 5516 5514 5513 5511 5511 5510 5509 5507 5506 5505 5504 5504 5504 5505 5506 5507 5507 5507 5509 5512 5515 5518 5520 5521 5526 5537 5548 5548 5550 5556 5558 5561 5564 5568 5575 5582
5504 5502 5500 5499 5497 5496 5496 5495 5494 5493 5492 5492 5491 5491 5490 5491 5492 5494 5495 5495 5497 5501 5505 5508 5510 5513 5517 5526 5534 5541 5543 5544 5548 5553 5558 5561 5566 5572
5489 5487 5486 5485 5484 5483 5482 5481 5480 5480 5480 5480 5481 5480 5480 5481 5482 5484 5485 5487 5488 5492 5497 5502 5507 5509 5512 5514 5522 5533 5537 5539 5543 5546 5550 5551 5555 5559
5474 5473 5472 5472 5471 5471 5470 5470 5469 5470 5470 5470 5471 5471 5472 5473 5474 5476 5478 5480 5483 5487 5491 5497 5500 5502 5504 5509 5517 5524 5530 5533 5537 5541 5545 5550 5551 5555
5461 5460 5460 5460 5460 5460 5460 5460 5460 5461 5461 5462 5463 5464 5465 5466 5469 5472 5475 5477 5479 5484 5488 5492 5496 5498 5502 5506 5512 5518 5523 5527 5530 5534 5540 5545 5548 5553